Year,Month,Day,Hour,Minute,Value (Times are PST for temperature in C)
2010,08,30,00,00,13.80
2010,08,30,00,01,13.80
2010,08,30,00,02,13.80
2010,08,30,00,03,13.80
2010,08,30,00,04,13.80
2010,08,30,00,05,13.80
2010,08,30,00,06,13.70
2010,08,30,00,07,13.70
2010,08,30,00,08,13.70
2010,08,30,00,09,13.70
2010,08,30,00,10,13.70
2010,08,30,00,11,13.70
2010,08,30,00,12,13.70
2010,08,30,00,13,13.70
2010,08,30,00,14,13.60
2010,08,30,00,15,13.60
2010,08,30,00,16,13.60
2010,08,30,00,17,13.60
2010,08,30,00,18,13.60
2010,08,30,00,19,13.60
2010,08,30,00,20,13.60
2010,08,30,00,21,13.60
2010,08,30,00,22,13.60
2010,08,30,00,23,13.60
2010,08,30,00,24,13.60
2010,08,30,00,25,13.60
2010,08,30,00,26,13.60
2010,08,30,00,27,13.50
2010,08,30,00,28,13.50
2010,08,30,00,29,13.50
2010,08,30,00,30,13.50
2010,08,30,00,31,13.40
2010,08,30,00,32,13.40
2010,08,30,00,33,13.40
2010,08,30,00,34,13.40
2010,08,30,00,35,13.40
2010,08,30,00,36,13.40
2010,08,30,00,37,13.40
2010,08,30,00,38,13.40
2010,08,30,00,39,13.40
2010,08,30,00,40,13.40
2010,08,30,00,41,13.40
2010,08,30,00,42,13.50
2010,08,30,00,43,13.50
2010,08,30,00,44,13.50
2010,08,30,00,45,13.50
2010,08,30,00,46,13.50
2010,08,30,00,47,13.60
2010,08,30,00,48,13.60
2010,08,30,00,49,13.60
2010,08,30,00,50,13.60
2010,08,30,00,51,13.60
2010,08,30,00,52,13.60
2010,08,30,00,53,13.50
2010,08,30,00,54,13.50
2010,08,30,00,55,13.50
2010,08,30,00,56,13.50
2010,08,30,00,57,13.50
2010,08,30,00,58,13.50
2010,08,30,00,59,13.60
2010,08,30,01,00,13.60
2010,08,30,01,01,13.60
2010,08,30,01,02,13.60
2010,08,30,01,03,13.60
2010,08,30,01,04,13.60
2010,08,30,01,05,13.60
2010,08,30,01,06,13.60
2010,08,30,01,07,13.60
2010,08,30,01,08,13.50
2010,08,30,01,09,13.50
2010,08,30,01,10,13.50
2010,08,30,01,11,13.50
2010,08,30,01,12,13.50
2010,08,30,01,13,13.50
2010,08,30,01,14,13.50
2010,08,30,01,15,13.50
2010,08,30,01,16,13.50
2010,08,30,01,17,13.50
2010,08,30,01,18,13.40
2010,08,30,01,19,13.40
2010,08,30,01,20,13.40
2010,08,30,01,21,13.40
2010,08,30,01,22,13.40
2010,08,30,01,23,13.40
2010,08,30,01,24,13.40
2010,08,30,01,25,13.30
2010,08,30,01,26,13.30
2010,08,30,01,27,13.30
2010,08,30,01,28,13.30
2010,08,30,01,29,13.20
2010,08,30,01,30,13.20
2010,08,30,01,31,13.20
2010,08,30,01,32,13.10
2010,08,30,01,33,13.10
2010,08,30,01,34,13.10
2010,08,30,01,35,13.10
2010,08,30,01,36,13.10
2010,08,30,01,37,13.00
2010,08,30,01,38,13.00
2010,08,30,01,39,13.00
2010,08,30,01,40,12.90
2010,08,30,01,41,12.90
2010,08,30,01,42,12.80
2010,08,30,01,43,12.80
2010,08,30,01,44,12.80
2010,08,30,01,45,12.70
2010,08,30,01,46,12.70
2010,08,30,01,47,12.60
2010,08,30,01,48,12.60
2010,08,30,01,49,12.60
2010,08,30,01,50,12.50
2010,08,30,01,51,12.50
2010,08,30,01,52,12.50
2010,08,30,01,53,12.50
2010,08,30,01,54,12.40
2010,08,30,01,55,12.40
2010,08,30,01,56,12.40
2010,08,30,01,57,12.40
2010,08,30,01,58,12.30
2010,08,30,01,59,12.30
2010,08,30,02,00,12.30
2010,08,30,02,01,12.20
2010,08,30,02,02,12.20
2010,08,30,02,03,12.20
2010,08,30,02,04,12.20
2010,08,30,02,05,12.10
2010,08,30,02,06,12.10
2010,08,30,02,07,12.00
2010,08,30,02,08,12.00
2010,08,30,02,09,12.00
2010,08,30,02,10,12.00
2010,08,30,02,11,11.90
2010,08,30,02,12,11.90
2010,08,30,02,13,11.90
2010,08,30,02,14,11.90
2010,08,30,02,15,11.80
2010,08,30,02,16,11.80
2010,08,30,02,17,11.80
2010,08,30,02,18,11.80
2010,08,30,02,19,11.90
2010,08,30,02,20,11.90
2010,08,30,02,21,11.90
2010,08,30,02,22,11.90
2010,08,30,02,23,11.90
2010,08,30,02,24,12.00
2010,08,30,02,25,12.00
2010,08,30,02,26,12.10
2010,08,30,02,27,12.10
2010,08,30,02,28,12.10
2010,08,30,02,29,12.10
2010,08,30,02,30,12.10
2010,08,30,02,31,12.10
2010,08,30,02,32,12.00
2010,08,30,02,33,12.00
2010,08,30,02,34,11.90
2010,08,30,02,35,11.90
2010,08,30,02,36,11.90
2010,08,30,02,37,11.90
2010,08,30,02,38,11.90
2010,08,30,02,39,11.80
2010,08,30,02,40,11.80
2010,08,30,02,41,11.80
2010,08,30,02,42,11.80
2010,08,30,02,43,11.80
2010,08,30,02,44,11.80
2010,08,30,02,45,11.80
2010,08,30,02,46,11.80
2010,08,30,02,47,11.80
2010,08,30,02,48,11.80
2010,08,30,02,49,11.80
2010,08,30,02,50,11.80
2010,08,30,02,51,11.80
2010,08,30,02,52,11.80
2010,08,30,02,53,11.80
2010,08,30,02,54,11.80
2010,08,30,02,55,11.90
2010,08,30,02,56,11.90
2010,08,30,02,57,11.90
2010,08,30,02,58,11.90
2010,08,30,02,59,11.90
2010,08,30,03,00,11.90
2010,08,30,03,01,11.90
2010,08,30,03,02,11.90
2010,08,30,03,03,11.90
2010,08,30,03,04,11.90
2010,08,30,03,05,11.90
2010,08,30,03,06,11.90
2010,08,30,03,07,11.80
2010,08,30,03,08,11.90
2010,08,30,03,09,11.80
2010,08,30,03,10,11.90
2010,08,30,03,11,11.90
2010,08,30,03,12,11.90
2010,08,30,03,13,11.80
2010,08,30,03,14,11.80
2010,08,30,03,15,11.80
2010,08,30,03,16,11.80
2010,08,30,03,17,11.80
2010,08,30,03,18,11.80
2010,08,30,03,19,11.80
2010,08,30,03,20,11.70
2010,08,30,03,21,11.70
2010,08,30,03,22,11.70
2010,08,30,03,23,11.70
2010,08,30,03,24,11.70
2010,08,30,03,25,11.60
2010,08,30,03,26,11.60
2010,08,30,03,27,11.60
2010,08,30,03,28,11.60
2010,08,30,03,29,11.60
2010,08,30,03,30,11.50
2010,08,30,03,31,11.50
2010,08,30,03,32,11.50
2010,08,30,03,33,11.40
2010,08,30,03,34,11.40
2010,08,30,03,35,11.40
2010,08,30,03,36,11.30
2010,08,30,03,37,11.30
2010,08,30,03,38,11.30
2010,08,30,03,39,11.20
2010,08,30,03,40,11.20
2010,08,30,03,41,11.10
2010,08,30,03,42,11.10
2010,08,30,03,43,11.00
2010,08,30,03,44,11.00
2010,08,30,03,45,11.00
2010,08,30,03,46,10.90
2010,08,30,03,47,10.90
2010,08,30,03,48,10.90
2010,08,30,03,49,10.80
2010,08,30,03,50,10.80
2010,08,30,03,51,10.80
2010,08,30,03,52,10.80
2010,08,30,03,53,10.80
2010,08,30,03,54,10.70
2010,08,30,03,55,10.70
2010,08,30,03,56,10.70
2010,08,30,03,57,10.60
2010,08,30,03,58,10.60
2010,08,30,03,59,10.60
2010,08,30,04,00,10.50
2010,08,30,04,01,10.50
2010,08,30,04,02,10.50
2010,08,30,04,03,10.40
2010,08,30,04,04,10.40
2010,08,30,04,05,10.40
2010,08,30,04,06,10.40
2010,08,30,04,07,10.30
2010,08,30,04,08,10.30
2010,08,30,04,09,10.30
2010,08,30,04,10,10.30
2010,08,30,04,11,10.30
2010,08,30,04,12,10.20
2010,08,30,04,13,10.20
2010,08,30,04,14,10.20
2010,08,30,04,15,10.20
2010,08,30,04,16,10.20
2010,08,30,04,17,10.20
2010,08,30,04,18,10.20
2010,08,30,04,19,10.10
2010,08,30,04,20,10.10
2010,08,30,04,21,10.10
2010,08,30,04,22,10.10
2010,08,30,04,23,10.10
2010,08,30,04,24,10.10
2010,08,30,04,25,10.10
2010,08,30,04,26,10.00
2010,08,30,04,27,10.00
2010,08,30,04,28,10.00
2010,08,30,04,29,9.90
2010,08,30,04,30,9.90
2010,08,30,04,31,9.90
2010,08,30,04,32,9.90
2010,08,30,04,33,9.90
2010,08,30,04,34,9.90
2010,08,30,04,35,9.90
2010,08,30,04,36,9.90
2010,08,30,04,37,9.90
2010,08,30,04,38,9.90
2010,08,30,04,39,9.90
2010,08,30,04,40,9.90
2010,08,30,04,41,9.90
2010,08,30,04,42,9.90
2010,08,30,04,43,9.90
2010,08,30,04,44,9.90
2010,08,30,04,45,9.90
2010,08,30,04,46,9.90
2010,08,30,04,47,9.90
2010,08,30,04,48,9.80
2010,08,30,04,49,9.80
2010,08,30,04,50,9.80
2010,08,30,04,51,9.80
2010,08,30,04,52,9.80
2010,08,30,04,53,9.80
2010,08,30,04,54,9.80
2010,08,30,04,55,9.80
2010,08,30,04,56,9.80
2010,08,30,04,57,9.80
2010,08,30,04,58,9.80
2010,08,30,04,59,9.80
2010,08,30,05,00,9.80
2010,08,30,05,01,9.80
2010,08,30,05,02,9.80
2010,08,30,05,03,9.80
2010,08,30,05,04,9.80
2010,08,30,05,05,9.80
2010,08,30,05,06,9.80
2010,08,30,05,07,9.80
2010,08,30,05,08,9.80
2010,08,30,05,09,9.80
2010,08,30,05,10,9.80
2010,08,30,05,11,9.80
2010,08,30,05,12,9.80
2010,08,30,05,13,9.80
2010,08,30,05,14,9.80
2010,08,30,05,15,9.80
2010,08,30,05,16,9.80
2010,08,30,05,17,9.80
2010,08,30,05,18,9.70
2010,08,30,05,19,9.70
2010,08,30,05,20,9.70
2010,08,30,05,21,9.70
2010,08,30,05,22,9.70
2010,08,30,05,23,9.70
2010,08,30,05,24,9.70
2010,08,30,05,25,9.70
2010,08,30,05,26,9.60
2010,08,30,05,27,9.60
2010,08,30,05,28,9.60
2010,08,30,05,29,9.60
2010,08,30,05,30,9.60
2010,08,30,05,31,9.60
2010,08,30,05,32,9.60
2010,08,30,05,33,9.60
2010,08,30,05,34,9.60
2010,08,30,05,35,9.60
2010,08,30,05,36,9.60
2010,08,30,05,37,9.50
2010,08,30,05,38,9.50
2010,08,30,05,39,9.50
2010,08,30,05,40,9.40
2010,08,30,05,41,9.40
2010,08,30,05,42,9.40
2010,08,30,05,43,9.30
2010,08,30,05,44,9.30
2010,08,30,05,45,9.30
2010,08,30,05,46,9.30
2010,08,30,05,47,9.30
2010,08,30,05,48,9.30
2010,08,30,05,49,9.30
2010,08,30,05,50,9.30
2010,08,30,05,51,9.30
2010,08,30,05,52,9.30
2010,08,30,05,53,9.30
2010,08,30,05,54,9.30
2010,08,30,05,55,9.30
2010,08,30,05,56,9.30
2010,08,30,05,57,9.30
2010,08,30,05,58,9.30
2010,08,30,05,59,9.30
2010,08,30,06,00,9.30
2010,08,30,06,01,9.30
2010,08,30,06,02,9.30
2010,08,30,06,03,9.30
2010,08,30,06,04,9.30
2010,08,30,06,05,9.30
2010,08,30,06,06,9.30
2010,08,30,06,07,9.30
2010,08,30,06,08,9.30
2010,08,30,06,09,9.30
2010,08,30,06,10,9.30
2010,08,30,06,11,9.30
2010,08,30,06,12,9.30
2010,08,30,06,13,9.30
2010,08,30,06,14,9.30
2010,08,30,06,15,9.30
2010,08,30,06,16,9.30
2010,08,30,06,17,9.30
2010,08,30,06,18,9.30
2010,08,30,06,19,9.40
2010,08,30,06,20,9.40
2010,08,30,06,21,9.40
2010,08,30,06,22,9.40
2010,08,30,06,23,9.40
2010,08,30,06,24,9.40
2010,08,30,06,25,9.40
2010,08,30,06,26,9.40
2010,08,30,06,27,9.40
2010,08,30,06,28,9.40
2010,08,30,06,29,9.40
2010,08,30,06,30,9.40
2010,08,30,06,31,9.40
2010,08,30,06,32,9.40
2010,08,30,06,33,9.40
2010,08,30,06,34,9.40
2010,08,30,06,35,9.40
2010,08,30,06,36,9.40
2010,08,30,06,37,9.40
2010,08,30,06,38,9.40
2010,08,30,06,39,9.50
2010,08,30,06,40,9.50
2010,08,30,06,41,9.50
2010,08,30,06,42,9.50
2010,08,30,06,43,9.50
2010,08,30,06,44,9.60
2010,08,30,06,45,9.60
2010,08,30,06,46,9.60
2010,08,30,06,47,9.60
2010,08,30,06,48,9.60
2010,08,30,06,49,9.60
2010,08,30,06,50,9.70
2010,08,30,06,51,9.70
2010,08,30,06,52,9.70
2010,08,30,06,53,9.80
2010,08,30,06,54,9.80
2010,08,30,06,55,9.80
2010,08,30,06,56,9.90
2010,08,30,06,57,9.90
2010,08,30,06,58,9.90
2010,08,30,06,59,9.90
2010,08,30,07,00,10.00
2010,08,30,07,01,10.00
2010,08,30,07,02,10.00
2010,08,30,07,03,10.00
2010,08,30,07,04,10.00
2010,08,30,07,05,10.10
2010,08,30,07,06,10.10
2010,08,30,07,07,10.10
2010,08,30,07,08,10.10
2010,08,30,07,09,10.10
2010,08,30,07,10,10.20
2010,08,30,07,11,10.20
2010,08,30,07,12,10.20
2010,08,30,07,13,10.20
2010,08,30,07,14,10.30
2010,08,30,07,15,10.30
2010,08,30,07,16,10.30
2010,08,30,07,17,10.40
2010,08,30,07,18,10.40
2010,08,30,07,19,10.40
2010,08,30,07,20,10.50
2010,08,30,07,21,10.50
2010,08,30,07,22,10.50
2010,08,30,07,23,10.60
2010,08,30,07,24,10.60
2010,08,30,07,25,10.60
2010,08,30,07,26,10.70
2010,08,30,07,27,10.70
2010,08,30,07,28,10.70
2010,08,30,07,29,10.80
2010,08,30,07,30,10.80
2010,08,30,07,31,10.90
2010,08,30,07,32,10.90
2010,08,30,07,33,11.00
2010,08,30,07,34,11.00
2010,08,30,07,35,11.10
2010,08,30,07,36,11.10
2010,08,30,07,37,11.20
2010,08,30,07,38,11.20
2010,08,30,07,39,11.30
2010,08,30,07,40,11.30
2010,08,30,07,41,11.40
2010,08,30,07,42,11.40
2010,08,30,07,43,11.50
2010,08,30,07,44,11.50
2010,08,30,07,45,11.50
2010,08,30,07,46,11.60
2010,08,30,07,47,11.70
2010,08,30,07,48,11.70
2010,08,30,07,49,11.80
2010,08,30,07,50,11.80
2010,08,30,07,51,11.90
2010,08,30,07,52,11.90
2010,08,30,07,53,12.00
2010,08,30,07,54,12.10
2010,08,30,07,55,12.10
2010,08,30,07,56,12.20
2010,08,30,07,57,12.30
2010,08,30,07,58,12.30
2010,08,30,07,59,12.40
2010,08,30,08,00,12.50
2010,08,30,08,01,12.50
2010,08,30,08,02,12.60
2010,08,30,08,03,12.70
2010,08,30,08,04,12.70
2010,08,30,08,05,12.80
2010,08,30,08,06,12.90
2010,08,30,08,07,12.90
2010,08,30,08,08,13.00
2010,08,30,08,09,13.00
2010,08,30,08,10,13.10
2010,08,30,08,11,13.20
2010,08,30,08,12,13.30
2010,08,30,08,13,13.40
2010,08,30,08,14,13.40
2010,08,30,08,15,13.50
2010,08,30,08,16,13.60
2010,08,30,08,17,13.60
2010,08,30,08,18,13.70
2010,08,30,08,19,13.80
2010,08,30,08,20,13.80
2010,08,30,08,21,13.90
2010,08,30,08,22,14.00
2010,08,30,08,23,14.00
2010,08,30,08,24,14.10
2010,08,30,08,25,14.10
2010,08,30,08,26,14.20
2010,08,30,08,27,14.20
2010,08,30,08,28,14.20
2010,08,30,08,29,14.30
2010,08,30,08,30,14.30
2010,08,30,08,31,14.40
2010,08,30,08,32,14.40
2010,08,30,08,33,14.50
2010,08,30,08,34,14.50
2010,08,30,08,35,14.60
2010,08,30,08,36,14.60
2010,08,30,08,37,14.70
2010,08,30,08,38,14.80
2010,08,30,08,39,14.90
2010,08,30,08,40,14.90
2010,08,30,08,41,15.00
2010,08,30,08,42,15.00
2010,08,30,08,43,15.00
2010,08,30,08,44,15.00
2010,08,30,08,45,15.00
2010,08,30,08,46,15.00
2010,08,30,08,47,15.00
2010,08,30,08,48,15.00
2010,08,30,08,49,15.00
2010,08,30,08,50,15.00
2010,08,30,08,51,15.10
2010,08,30,08,52,15.20
2010,08,30,08,53,15.30
2010,08,30,08,54,15.30
2010,08,30,08,55,15.30
2010,08,30,08,56,15.40
2010,08,30,08,57,15.50
2010,08,30,08,58,15.50
2010,08,30,08,59,15.50
2010,08,30,09,00,15.50
2010,08,30,09,01,15.60
2010,08,30,09,02,15.60
2010,08,30,09,03,15.60
2010,08,30,09,04,15.60
2010,08,30,09,05,15.60
2010,08,30,09,06,15.60
2010,08,30,09,07,15.60
2010,08,30,09,08,15.70
2010,08,30,09,09,15.70
2010,08,30,09,10,15.80
2010,08,30,09,11,15.80
2010,08,30,09,12,15.70
2010,08,30,09,13,15.80
2010,08,30,09,14,15.80
2010,08,30,09,15,15.80
2010,08,30,09,16,15.80
2010,08,30,09,17,15.80
2010,08,30,09,18,15.90
2010,08,30,09,19,15.90
2010,08,30,09,20,15.80
2010,08,30,09,21,15.80
2010,08,30,09,22,15.80
2010,08,30,09,23,15.80
2010,08,30,09,24,15.80
2010,08,30,09,25,15.90
2010,08,30,09,26,16.00
2010,08,30,09,27,16.00
2010,08,30,09,28,16.10
2010,08,30,09,29,16.20
2010,08,30,09,30,16.30
2010,08,30,09,31,16.30
2010,08,30,09,32,16.40
2010,08,30,09,33,16.50
2010,08,30,09,34,16.70
2010,08,30,09,35,16.80
2010,08,30,09,36,16.90
2010,08,30,09,37,17.00
2010,08,30,09,38,17.10
2010,08,30,09,39,17.20
2010,08,30,09,40,17.30
2010,08,30,09,41,17.30
2010,08,30,09,42,17.20
2010,08,30,09,43,17.10
2010,08,30,09,44,17.00
2010,08,30,09,45,16.80
2010,08,30,09,46,16.80
2010,08,30,09,47,16.70
2010,08,30,09,48,16.80
2010,08,30,09,49,16.80
2010,08,30,09,50,16.80
2010,08,30,09,51,16.80
2010,08,30,09,52,16.90
2010,08,30,09,53,16.90
2010,08,30,09,54,17.00
2010,08,30,09,55,17.10
2010,08,30,09,56,17.10
2010,08,30,09,57,17.10
2010,08,30,09,58,17.10
2010,08,30,09,59,17.20
2010,08,30,10,00,17.20
2010,08,30,10,01,17.20
2010,08,30,10,02,17.20
2010,08,30,10,03,17.30
2010,08,30,10,04,17.40
2010,08,30,10,05,17.40
2010,08,30,10,06,17.50
2010,08,30,10,07,17.60
2010,08,30,10,08,17.60
2010,08,30,10,09,17.60
2010,08,30,10,10,17.60
2010,08,30,10,11,17.60
2010,08,30,10,12,17.60
2010,08,30,10,13,17.50
2010,08,30,10,14,17.50
2010,08,30,10,15,17.40
2010,08,30,10,16,17.40
2010,08,30,10,17,17.40
2010,08,30,10,18,17.40
2010,08,30,10,19,17.40
2010,08,30,10,20,17.50
2010,08,30,10,21,17.50
2010,08,30,10,22,17.40
2010,08,30,10,23,17.40
2010,08,30,10,24,17.50
2010,08,30,10,25,17.50
2010,08,30,10,26,17.60
2010,08,30,10,27,17.60
2010,08,30,10,28,17.60
2010,08,30,10,29,17.80
2010,08,30,10,30,17.80
2010,08,30,10,31,17.70
2010,08,30,10,32,17.70
2010,08,30,10,33,17.70
2010,08,30,10,34,17.80
2010,08,30,10,35,17.90
2010,08,30,10,36,18.00
2010,08,30,10,37,18.00
2010,08,30,10,38,18.00
2010,08,30,10,39,17.90
2010,08,30,10,40,17.80
2010,08,30,10,41,17.80
2010,08,30,10,42,17.80
2010,08,30,10,43,17.90
2010,08,30,10,44,17.90
2010,08,30,10,45,18.00
2010,08,30,10,46,18.10
2010,08,30,10,47,18.10
2010,08,30,10,48,18.20
2010,08,30,10,49,18.10
2010,08,30,10,50,18.10
2010,08,30,10,51,18.20
2010,08,30,10,52,18.20
2010,08,30,10,53,18.30
2010,08,30,10,54,18.40
2010,08,30,10,55,18.50
2010,08,30,10,56,18.60
2010,08,30,10,57,18.60
2010,08,30,10,58,18.70
2010,08,30,10,59,18.70
2010,08,30,11,00,18.60
2010,08,30,11,01,18.60
2010,08,30,11,02,18.50
2010,08,30,11,03,18.50
2010,08,30,11,04,18.50
2010,08,30,11,05,18.60
2010,08,30,11,06,18.60
2010,08,30,11,07,18.60
2010,08,30,11,08,18.60
2010,08,30,11,09,18.70
2010,08,30,11,10,18.70
2010,08,30,11,11,18.80
2010,08,30,11,12,18.80
2010,08,30,11,13,18.80
2010,08,30,11,14,18.80
2010,08,30,11,15,18.80
2010,08,30,11,16,18.80
2010,08,30,11,17,18.80
2010,08,30,11,18,18.80
2010,08,30,11,19,18.80
2010,08,30,11,20,18.70
2010,08,30,11,21,18.70
2010,08,30,11,22,18.80
2010,08,30,11,23,18.80
2010,08,30,11,24,18.70
2010,08,30,11,25,18.70
2010,08,30,11,26,18.70
2010,08,30,11,27,18.70
2010,08,30,11,28,18.70
2010,08,30,11,29,18.60
2010,08,30,11,30,18.50
2010,08,30,11,31,18.30
2010,08,30,11,32,18.30
2010,08,30,11,33,18.30
2010,08,30,11,34,18.30
2010,08,30,11,35,18.40
2010,08,30,11,36,18.40
2010,08,30,11,37,18.30
2010,08,30,11,38,18.30
2010,08,30,11,39,18.30
2010,08,30,11,40,18.20
2010,08,30,11,41,18.20
2010,08,30,11,42,18.30
2010,08,30,11,43,18.30
2010,08,30,11,44,18.30
2010,08,30,11,45,18.40
2010,08,30,11,46,18.40
2010,08,30,11,47,18.50
2010,08,30,11,48,18.60
2010,08,30,11,49,18.70
2010,08,30,11,50,18.60
2010,08,30,11,51,18.60
2010,08,30,11,52,18.70
2010,08,30,11,53,18.70
2010,08,30,11,54,18.80
2010,08,30,11,55,18.80
2010,08,30,11,56,18.80
2010,08,30,11,57,18.90
2010,08,30,11,58,19.00
2010,08,30,11,59,19.00
2010,08,30,12,00,19.10
2010,08,30,12,01,19.20
2010,08,30,12,02,19.20
2010,08,30,12,03,19.10
2010,08,30,12,04,19.10
2010,08,30,12,05,19.10
2010,08,30,12,06,19.10
2010,08,30,12,07,19.10
2010,08,30,12,08,19.10
2010,08,30,12,09,19.00
2010,08,30,12,10,19.00
2010,08,30,12,11,19.00
2010,08,30,12,12,19.10
2010,08,30,12,13,19.10
2010,08,30,12,14,19.20
2010,08,30,12,15,19.30
2010,08,30,12,16,19.40
2010,08,30,12,17,19.40
2010,08,30,12,18,19.40
2010,08,30,12,19,19.30
2010,08,30,12,20,19.30
2010,08,30,12,21,19.30
2010,08,30,12,22,19.30
2010,08,30,12,23,19.40
2010,08,30,12,24,19.50
2010,08,30,12,25,19.60
2010,08,30,12,26,19.70
2010,08,30,12,27,19.70
2010,08,30,12,28,19.80
2010,08,30,12,29,19.90
2010,08,30,12,30,20.00
2010,08,30,12,31,20.00
2010,08,30,12,32,20.10
2010,08,30,12,33,20.10
2010,08,30,12,34,20.00
2010,08,30,12,35,20.10
2010,08,30,12,36,20.10
2010,08,30,12,37,20.10
2010,08,30,12,38,20.00
2010,08,30,12,39,19.90
2010,08,30,12,42,19.90
2010,08,30,12,43,19.80
2010,08,30,12,44,19.70
2010,08,30,12,45,19.70
2010,08,30,12,46,19.60
2010,08,30,12,47,19.60
2010,08,30,12,48,19.70
2010,08,30,12,49,19.60
2010,08,30,12,50,19.60
2010,08,30,12,51,19.50
2010,08,30,12,52,19.60
2010,08,30,12,53,19.60
2010,08,30,12,54,19.50
2010,08,30,12,55,19.50
2010,08,30,12,56,19.40
2010,08,30,12,57,19.50
2010,08,30,12,58,19.60
2010,08,30,12,59,19.60
2010,08,30,13,00,19.60
2010,08,30,13,01,19.70
2010,08,30,13,02,19.60
2010,08,30,13,03,19.50
2010,08,30,13,04,19.50
2010,08,30,13,05,19.60
2010,08,30,13,06,19.50
2010,08,30,13,07,19.50
2010,08,30,13,08,19.50
2010,08,30,13,09,19.50
2010,08,30,13,10,19.50
2010,08,30,13,11,19.40
2010,08,30,13,12,19.30
2010,08,30,13,13,19.30
2010,08,30,13,14,19.30
2010,08,30,13,15,19.20
2010,08,30,13,16,19.20
2010,08,30,13,17,19.20
2010,08,30,13,18,19.20
2010,08,30,13,19,19.10
2010,08,30,13,20,18.90
2010,08,30,13,21,18.80
2010,08,30,13,22,18.80
2010,08,30,13,23,18.90
2010,08,30,13,24,19.00
2010,08,30,13,25,19.10
2010,08,30,13,26,19.20
2010,08,30,13,27,19.20
2010,08,30,13,28,19.30
2010,08,30,13,29,19.20
2010,08,30,13,30,19.20
2010,08,30,13,31,19.20
2010,08,30,13,32,19.20
2010,08,30,13,33,19.20
2010,08,30,13,34,19.20
2010,08,30,13,35,19.30
2010,08,30,13,36,19.30
2010,08,30,13,37,19.30
2010,08,30,13,38,19.40
2010,08,30,13,39,19.50
2010,08,30,13,40,19.40
2010,08,30,13,41,19.40
2010,08,30,13,42,19.40
2010,08,30,13,43,19.40
2010,08,30,13,44,19.30
2010,08,30,13,45,19.30
2010,08,30,13,46,19.30
2010,08,30,13,47,19.30
2010,08,30,13,48,19.30
2010,08,30,13,49,19.30
2010,08,30,13,50,19.20
2010,08,30,13,51,19.10
2010,08,30,13,52,19.10
2010,08,30,13,53,19.10
2010,08,30,13,54,19.10
2010,08,30,13,55,19.20
2010,08,30,13,56,19.20
2010,08,30,13,57,19.30
2010,08,30,13,58,19.40
2010,08,30,13,59,19.40
2010,08,30,14,00,19.40
2010,08,30,14,01,19.30
2010,08,30,14,02,19.20
2010,08,30,14,03,19.10
2010,08,30,14,04,19.10
2010,08,30,14,05,19.00
2010,08,30,14,06,18.90
2010,08,30,14,07,18.80
2010,08,30,14,08,18.80
2010,08,30,14,09,18.80
2010,08,30,14,10,18.90
2010,08,30,14,11,19.00
2010,08,30,14,12,19.10
2010,08,30,14,13,19.20
2010,08,30,14,14,19.30
2010,08,30,14,15,19.40
2010,08,30,14,16,19.50
2010,08,30,14,17,19.50
2010,08,30,14,18,19.60
2010,08,30,14,19,19.70
2010,08,30,14,20,19.80
2010,08,30,14,21,19.90
2010,08,30,14,22,19.90
2010,08,30,14,23,19.90
2010,08,30,14,24,19.90
2010,08,30,14,25,19.80
2010,08,30,14,26,19.80
2010,08,30,14,27,19.70
2010,08,30,14,28,19.70
2010,08,30,14,29,19.60
2010,08,30,14,30,19.60
2010,08,30,14,31,19.60
2010,08,30,14,32,19.70
2010,08,30,14,33,19.60
2010,08,30,14,34,19.60
2010,08,30,14,35,19.60
2010,08,30,14,36,19.70
2010,08,30,14,37,19.70
2010,08,30,14,38,19.80
2010,08,30,14,39,19.80
2010,08,30,14,40,19.90
2010,08,30,14,41,20.00
2010,08,30,14,42,20.10
2010,08,30,14,43,20.10
2010,08,30,14,44,20.00
2010,08,30,14,45,19.90
2010,08,30,14,46,19.90
2010,08,30,14,47,19.90
2010,08,30,14,48,19.90
2010,08,30,14,49,19.90
2010,08,30,14,50,19.90
2010,08,30,14,51,19.90
2010,08,30,14,52,19.90
2010,08,30,14,53,19.80
2010,08,30,14,54,19.80
2010,08,30,14,55,19.90
2010,08,30,14,56,19.90
2010,08,30,14,57,20.00
2010,08,30,14,58,20.00
2010,08,30,14,59,20.10
2010,08,30,15,00,20.00
2010,08,30,15,01,20.00
2010,08,30,15,02,20.10
2010,08,30,15,03,20.00
2010,08,30,15,04,20.00
2010,08,30,15,05,19.90
2010,08,30,15,06,19.90
2010,08,30,15,07,19.90
2010,08,30,15,08,19.90
2010,08,30,15,09,19.90
2010,08,30,15,10,19.90
2010,08,30,15,11,19.90
2010,08,30,15,12,19.90
2010,08,30,15,13,19.90
2010,08,30,15,14,20.00
2010,08,30,15,15,20.10
2010,08,30,15,16,20.10
2010,08,30,15,17,20.10
2010,08,30,15,18,20.10
2010,08,30,15,19,20.20
2010,08,30,15,20,20.20
2010,08,30,15,21,20.30
2010,08,30,15,22,20.30
2010,08,30,15,23,20.30
2010,08,30,15,24,20.20
2010,08,30,15,25,20.20
2010,08,30,15,26,20.20
2010,08,30,15,27,20.30
2010,08,30,15,28,20.30
2010,08,30,15,29,20.30
2010,08,30,15,30,20.30
2010,08,30,15,31,20.20
2010,08,30,15,32,20.20
2010,08,30,15,33,20.10
2010,08,30,15,34,20.10
2010,08,30,15,35,20.20
2010,08,30,15,36,20.20
2010,08,30,15,37,20.20
2010,08,30,15,38,20.20
2010,08,30,15,39,20.10
2010,08,30,15,40,20.00
2010,08,30,15,41,19.90
2010,08,30,15,42,19.80
2010,08,30,15,43,19.70
2010,08,30,15,44,19.70
2010,08,30,15,45,19.70
2010,08,30,15,46,19.70
2010,08,30,15,47,19.80
2010,08,30,15,48,19.80
2010,08,30,15,49,19.80
2010,08,30,15,50,19.80
2010,08,30,15,51,19.70
2010,08,30,15,52,19.60
2010,08,30,15,53,19.50
2010,08,30,15,54,19.40
2010,08,30,15,55,19.40
2010,08,30,15,56,19.40
2010,08,30,15,57,19.50
2010,08,30,15,58,19.50
2010,08,30,15,59,19.60
2010,08,30,16,00,19.60
2010,08,30,16,01,19.60
2010,08,30,16,02,19.70
2010,08,30,16,03,19.70
2010,08,30,16,04,19.80
2010,08,30,16,05,19.80
2010,08,30,16,06,19.80
2010,08,30,16,07,19.80
2010,08,30,16,08,19.80
2010,08,30,16,09,19.80
2010,08,30,16,10,19.80
2010,08,30,16,11,19.70
2010,08,30,16,12,19.70
2010,08,30,16,13,19.70
2010,08,30,16,14,19.70
2010,08,30,16,15,19.70
2010,08,30,16,16,19.70
2010,08,30,16,17,19.70
2010,08,30,16,18,19.60
2010,08,30,16,19,19.60
2010,08,30,16,20,19.60
2010,08,30,16,21,19.70
2010,08,30,16,22,19.70
2010,08,30,16,23,19.70
2010,08,30,16,24,19.70
2010,08,30,16,25,19.70
2010,08,30,16,26,19.70
2010,08,30,16,27,19.70
2010,08,30,16,28,19.70
2010,08,30,16,29,19.70
2010,08,30,16,30,19.70
2010,08,30,16,31,19.70
2010,08,30,16,32,19.70
2010,08,30,16,33,19.70
2010,08,30,16,34,19.70
2010,08,30,16,35,19.70
2010,08,30,16,36,19.60
2010,08,30,16,37,19.60
2010,08,30,16,38,19.60
2010,08,30,16,39,19.50
2010,08,30,16,40,19.50
2010,08,30,16,41,19.40
2010,08,30,16,42,19.50
2010,08,30,16,43,19.50
2010,08,30,16,44,19.50
2010,08,30,16,45,19.60
2010,08,30,16,46,19.60
2010,08,30,16,47,19.60
2010,08,30,16,48,19.60
2010,08,30,16,49,19.60
2010,08,30,16,50,19.60
2010,08,30,16,51,19.60
2010,08,30,16,52,19.60
2010,08,30,16,53,19.60
2010,08,30,16,54,19.60
2010,08,30,16,55,19.60
2010,08,30,16,56,19.60
2010,08,30,16,57,19.50
2010,08,30,16,58,19.30
2010,08,30,16,59,19.20
2010,08,30,17,00,19.20
2010,08,30,17,01,19.20
2010,08,30,17,02,19.10
2010,08,30,17,03,19.00
2010,08,30,17,04,19.00
2010,08,30,17,05,19.10
2010,08,30,17,06,19.10
2010,08,30,17,07,19.10
2010,08,30,17,08,19.20
2010,08,30,17,09,19.20
2010,08,30,17,10,19.20
2010,08,30,17,11,19.10
2010,08,30,17,12,19.10
2010,08,30,17,13,19.00
2010,08,30,17,14,19.00
2010,08,30,17,15,18.90
2010,08,30,17,16,18.90
2010,08,30,17,17,18.90
2010,08,30,17,18,18.90
2010,08,30,17,19,18.90
2010,08,30,17,20,18.90
2010,08,30,17,21,18.80
2010,08,30,17,22,18.80
2010,08,30,17,23,18.80
2010,08,30,17,24,18.80
2010,08,30,17,25,18.70
2010,08,30,17,26,18.70
2010,08,30,17,27,18.70
2010,08,30,17,28,18.60